Hurricane Symbol View the latest observations near Atlantic Tropical Depression Alberto.

Station LCLL1 - 8767816 - Lake Charles, LA Image indicating link to RSS feed of recent meteorological observations for station LCLL1


Conditions at LCLL1 as of
(9:54 am CDT)
1454 GMT on 06/20/2024:
     

Click on the graph icon in the table below to see a time series plot of the last five days of that observation.

5-day plot - Atmospheric Pressure Atmospheric Pressure (PRES):30.12 in
5-day plot - Air Temperature Air Temperature (ATMP): 82.9 °F
5-day plot - Water Temperature Water Temperature (WTMP): 91.9 °F
NOS Water Level Observation Network Water Level
Previous observations
TIME
(CDT)
5-day plot - Wind Direction
WDIR
 
5-day plot - Wind Speed
WSPD
kts
5-day plot - Wind Gust
GST
kts
5-day plot - Wave Height
WVHT
ft
5-day plot - Dominant Wave Period
DPD
sec
5-day plot - Average Wave Period
APD
sec
5-day plot - Mean Wave Direction
MWD
 
5-day plot - Atmospheric Pressure
PRES
in
5-day plot - Pressure Tendency
PTDY
in
5-day plot - Air Temperature
ATMP
°F
5-day plot - Water Temperature
WTMP
°F
5-day plot - Dew Point
DEWP
°F
5-day plot - Salinity
SAL
psu
5-day plot - Visibility
VIS
nmi
5-day plot - Tide (above MLLW)
TIDE
ft
2024-06-20 09:48 am-------30.11- 82.6 92.1----
2024-06-20 09:42 am-------30.11- 82.2 92.1----
2024-06-20 09:36 am-------30.11- 81.7 92.3----
2024-06-20 09:30 am-------30.11- 82.2 92.3----
2024-06-20 09:24 am-------30.11- 81.9 92.1----
2024-06-20 09:18 am-------30.11- 81.3 92.1----
2024-06-20 09:12 am-------30.11- 81.7 92.3----
2024-06-20 09:06 am-------30.11- 81.5 92.3----
2024-06-20 09:00 am-------30.11+0.05 81.3 92.5----
2024-06-20 08:54 am-------30.10- 81.0 92.3----
2024-06-20 08:48 am-------30.10- 80.4 92.3----
2024-06-20 08:42 am-------30.10- 80.2 92.3----
2024-06-20 08:36 am-------30.10- 80.1 92.3----
2024-06-20 08:30 am-------30.10- 80.1 92.5----
2024-06-20 08:24 am-------30.10- 79.9 92.5----
2024-06-20 08:18 am-------30.09- 79.7 92.5----
2024-06-20 08:12 am-------30.09- 79.2 92.5----
2024-06-20 08:06 am-------30.09- 78.4 92.5----
2024-06-20 08:00 am-------30.09+0.04 78.3 92.7----
2024-06-20 07:54 am-------30.09- 77.7 92.7----
2024-06-20 07:48 am-------30.09- 77.5 92.7----
2024-06-20 07:42 am-------30.09- 77.7 92.8----
2024-06-20 07:36 am-------30.08- 77.2 92.8----
2024-06-20 07:30 am-------30.08- 77.0 93.0----
2024-06-20 07:24 am-------30.08- 77.2 93.0----
2024-06-20 07:18 am-------30.08- 77.0 93.0----
2024-06-20 07:12 am-------30.07- 76.8 93.2----
2024-06-20 07:06 am-------30.07- 77.0 93.2----
2024-06-20 07:00 am-------30.07+0.03 77.0 93.2----
2024-06-20 06:54 am-------30.06- 76.8 93.0----
2024-06-20 06:48 am-------30.06- 76.8 93.0----
2024-06-20 06:42 am-------30.06- 76.8 93.0----
2024-06-20 06:36 am-------30.06- 76.5 93.0----
2024-06-20 06:30 am-------30.06- 76.5 93.0----
2024-06-20 06:24 am-------30.05- 76.5 93.0----
2024-06-20 06:18 am-------30.05- 76.5 93.0----
2024-06-20 06:12 am-------30.05- 76.5 93.2----
2024-06-20 06:06 am-------30.06- 76.6 92.8----
2024-06-20 06:00 am-------30.06+0.03 76.6 92.8----
2024-06-20 05:54 am-------30.06- 76.8 92.8----
2024-06-20 05:48 am-------30.06- 77.2 92.8----
2024-06-20 05:42 am-------30.05- 77.0 92.8----
2024-06-20 05:36 am-------30.05- 77.2 92.7----
2024-06-20 05:30 am-------30.05- 77.2 92.8----
2024-06-20 05:24 am-------30.05- 76.8 92.8----
2024-06-20 05:18 am-------30.04- 76.6 92.8----
2024-06-20 05:12 am-------30.05- 77.0 92.8----
2024-06-20 05:06 am-------30.05- 76.8 92.8----
2024-06-20 05:00 am-------30.05+0.01 76.8 92.8----
2024-06-20 04:54 am-------30.04- 76.8 92.8----
2024-06-20 04:48 am-------30.04- 77.0 92.8----
2024-06-20 04:42 am-------30.04- 76.8 92.8----
2024-06-20 04:36 am-------30.04- 77.2 92.8----
2024-06-20 04:30 am-------30.04- 77.2 92.8----
2024-06-20 04:24 am-------30.04- 77.0 92.8----
2024-06-20 04:18 am-------30.04- 77.2 92.8----
2024-06-20 04:12 am-------30.04- 77.2 93.0----
2024-06-20 04:06 am-------30.04- 77.4 93.0----
2024-06-20 04:00 am-------30.04+0.00 77.5 93.0----
2024-06-20 03:54 am-------30.04- 77.4 93.2----
2024-06-20 03:48 am-------30.03- 77.4 93.2----
2024-06-20 03:42 am-------30.03- 77.4 93.0----
2024-06-20 03:36 am-------30.03- 77.4 93.0----
2024-06-20 03:30 am-------30.03- 77.4 93.0----
2024-06-20 03:24 am-------30.03- 77.5 93.0----
2024-06-20 03:18 am-------30.03- 77.4 93.0----
2024-06-20 03:12 am-------30.03- 77.5 93.0----
2024-06-20 03:06 am-------30.03- 77.7 93.0----
2024-06-20 03:00 am-------30.03-0.01 77.5 93.0----
2024-06-20 02:54 am-------30.03- 77.7 93.2----
2024-06-20 02:48 am-------30.03- 77.7 93.2----
2024-06-20 02:42 am-------30.03- 77.7 93.2----
2024-06-20 02:36 am-------30.03- 77.9 93.0----
2024-06-20 02:30 am-------30.03- 77.9 93.0----
2024-06-20 02:24 am-------30.03- 77.7 93.0----
2024-06-20 02:18 am-------30.03- 77.9 92.8----
2024-06-20 02:12 am-------30.03- 77.9 92.8----
2024-06-20 02:06 am-------30.03- 78.1 92.8----
2024-06-20 02:00 am-------30.03+0.00 78.1 92.8----
2024-06-20 01:54 am-------30.03- 78.3 92.7----
2024-06-20 01:48 am-------30.04- 78.4 92.7----
2024-06-20 01:42 am-------30.04- 78.4 92.7----
2024-06-20 01:36 am-------30.04- 78.6 92.7----
2024-06-20 01:30 am-------30.04- 78.6 92.7----
2024-06-20 01:24 am-------30.04- 78.6 92.7----
2024-06-20 01:18 am-------30.04- 79.0 92.7----
2024-06-20 01:12 am-------30.04- 79.0 92.7----
2024-06-20 01:06 am-------30.04- 79.2 92.7----
2024-06-20 01:00 am-------30.04+0.02 79.5 92.5----
2024-06-20 12:54 am-------30.04- 79.5 92.5----
2024-06-20 12:48 am-------30.04- 79.9 92.5----
2024-06-20 12:42 am-------30.04- 79.9 92.5----
2024-06-20 12:36 am-------30.04- 80.1 92.5----
2024-06-20 12:30 am-------30.04- 80.2 92.5----
2024-06-20 12:24 am-------30.04- 80.2 92.5----
2024-06-20 12:18 am-------30.04- 80.2 92.5----
2024-06-20 12:12 am-------30.04- 80.6 92.5----
2024-06-20 12:06 am-------30.04- 80.6 92.5----
2024-06-20 12:00 am-------30.04+0.04 81.0 92.5----
2024-06-19 11:54 pm-------30.04- 81.0 92.5----
2024-06-19 11:48 pm-------30.04- 81.1 92.5----
2024-06-19 11:42 pm-------30.04- 81.3 92.5----
2024-06-19 11:36 pm-------30.04- 81.3 92.7----
2024-06-19 11:30 pm-------30.04- 81.3 92.7----
2024-06-19 11:24 pm-------30.05- 81.7 92.7----
2024-06-19 11:18 pm-------30.04- 81.7 92.7----
2024-06-19 11:12 pm-------30.04- 81.9 92.7----
2024-06-19 11:06 pm-------30.04- 82.0 92.5----
2024-06-19 11:00 pm-------30.04+0.06 82.0 92.5----
2024-06-19 10:54 pm-------30.04- 82.2 92.7----
2024-06-19 10:48 pm-------30.04- 82.4 92.7----
2024-06-19 10:42 pm-------30.03- 82.2 92.7----
2024-06-19 10:36 pm-------30.03- 82.4 92.5----
2024-06-19 10:30 pm-------30.03- 82.4 92.3----
2024-06-19 10:24 pm-------30.03- 82.4 92.5----
2024-06-19 10:18 pm-------30.03- 82.8 92.5----
2024-06-19 10:12 pm-------30.03- 82.8 92.7----
2024-06-19 10:06 pm-------30.03- 83.1 92.5----
2024-06-19 10:00 pm-------30.03+0.07 83.3 92.3----
2024-06-19 09:54 pm-------30.02- 83.3 92.3----
2024-06-19 09:48 pm-------30.02- 83.5 92.1----
2024-06-19 09:42 pm-------30.02- 83.3 92.3----
2024-06-19 09:36 pm-------30.01- 83.5 92.3----
2024-06-19 09:30 pm-------30.01- 83.7 92.5----
2024-06-19 09:24 pm-------30.01- 83.8 92.3----
2024-06-19 09:18 pm-------30.01- 84.2 92.5----
2024-06-19 09:12 pm-------30.01- 84.2 92.5----
2024-06-19 09:06 pm-------30.00- 84.2 92.1----
2024-06-19 09:00 pm-------30.00+0.04 84.4 92.1----
2024-06-19 08:54 pm-------30.00- 84.4 92.1----
2024-06-19 08:48 pm-------29.99- 84.4 91.9----
2024-06-19 08:42 pm-------29.99- 84.6 91.9----
2024-06-19 08:36 pm-------29.99- 84.7 91.9----
2024-06-19 08:30 pm-------29.99- 84.9 91.9----
2024-06-19 08:24 pm-------29.99- 85.1 91.8----
2024-06-19 08:18 pm-------29.98- 85.5 91.8----
2024-06-19 08:12 pm-------29.98- 86.2 91.8----
2024-06-19 08:06 pm-------29.98- 86.7 91.6----
2024-06-19 08:00 pm-------29.98+0.04 86.7 91.6----
2024-06-19 07:54 pm-------29.98- 87.1 91.6----
2024-06-19 07:48 pm-------29.97- 87.3 91.4----
2024-06-19 07:42 pm-------29.97- 87.6 91.4----
2024-06-19 07:36 pm-------29.97- 88.2 91.2----
2024-06-19 07:30 pm-------29.97- 88.2 91.2----
2024-06-19 07:24 pm-------29.96- 88.3 91.0----
2024-06-19 07:18 pm-------29.96- 89.1 90.9----
2024-06-19 07:12 pm-------29.96- 89.4 90.9----
2024-06-19 07:06 pm-------29.96- 89.6 90.9----
2024-06-19 07:00 pm-------29.96+0.01 90.1 90.9----
2024-06-19 06:54 pm-------29.96- 90.0 91.0----
2024-06-19 06:48 pm-------29.96- 89.8 91.2----
2024-06-19 06:42 pm-------29.95- 89.8 91.0----
2024-06-19 06:36 pm-------29.96- 89.8 90.9----
2024-06-19 06:30 pm-------29.96- 89.4 91.2----
2024-06-19 06:24 pm-------29.96- 89.1 91.2----
2024-06-19 06:18 pm-------29.96- 90.1 91.0----
2024-06-19 06:12 pm-------29.96- 90.9 90.9----
2024-06-19 06:06 pm-------29.96- 90.1 90.9----
2024-06-19 06:00 pm-------29.96+0.00 90.1 90.9----
2024-06-19 05:54 pm-------29.96- 89.6 91.0----
2024-06-19 05:48 pm-------29.96-- 91.0----
2024-06-19 05:42 pm-------29.95-- 91.0----
2024-06-19 05:36 pm-------29.95-- 91.0----
2024-06-19 05:30 pm-------29.95- 88.9 91.0----
2024-06-19 05:24 pm-------29.95- 89.1 91.0----
2024-06-19 05:18 pm-------29.95- 88.5-----
2024-06-19 05:12 pm-------29.95- 87.4-----
2024-06-19 05:06 pm-------29.94- 86.5-----
2024-06-19 05:00 pm-------29.94-0.03 86.0 91.6----
2024-06-19 04:54 pm-------29.94- 84.6 91.4----
2024-06-19 04:48 pm-------29.95- 87.3 90.9----
2024-06-19 04:42 pm-------29.94- 87.4 90.9----
2024-06-19 04:36 pm-------29.95- 86.7 91.0----
2024-06-19 04:30 pm-------29.95- 85.6 91.0----
2024-06-19 04:24 pm-------29.95- 84.7 91.0----
2024-06-19 04:18 pm-------29.95- 86.7 90.9----
2024-06-19 04:12 pm-------29.95- 89.6 90.7----
2024-06-19 04:06 pm-------29.95- 90.7 90.7----
2024-06-19 04:00 pm-------29.94-0.04 89.1 91.0----
2024-06-19 03:54 pm-------29.94- 88.7 91.0----
2024-06-19 03:48 pm-------29.95- 89.1 90.7----
2024-06-19 03:42 pm-------29.95- 88.9 90.9----
2024-06-19 03:36 pm-------29.95- 89.1 91.0----
2024-06-19 03:30 pm-------29.95- 88.2 90.9----
2024-06-19 03:24 pm-------29.95- 88.0 90.7----
2024-06-19 03:18 pm-------29.96- 89.2 90.9----
2024-06-19 03:12 pm-------29.96- 89.1 90.9----
2024-06-19 03:06 pm-------29.96- 87.6 90.9----
2024-06-19 03:00 pm-------29.96-0.03 88.9 90.9----
2024-06-19 02:54 pm-------29.96- 88.7 90.9----
2024-06-19 02:48 pm-------29.96- 87.8 90.9----
2024-06-19 02:42 pm-------29.96- 88.3 91.0----
2024-06-19 02:36 pm-------29.96- 88.0 91.0----
2024-06-19 02:30 pm-------29.97- 87.8 91.0----
2024-06-19 02:24 pm-------29.97- 87.3 90.7----
2024-06-19 02:18 pm-------29.97- 88.7 90.7----
2024-06-19 02:12 pm-------29.97- 87.3 90.9----
2024-06-19 02:06 pm-------29.97- 86.5 90.9----
2024-06-19 02:00 pm-------29.97+0.00 87.4 90.9----
2024-06-19 01:54 pm-------29.97- 88.0 90.7----
2024-06-19 01:48 pm-------29.98- 86.9 90.7----
2024-06-19 01:42 pm-------29.98- 86.4 90.7----
2024-06-19 01:36 pm-------29.98- 86.0 90.7----
2024-06-19 01:30 pm-------29.98- 86.4 90.9----
2024-06-19 01:24 pm-------29.98- 86.4 90.9----
2024-06-19 01:18 pm-------29.98- 86.5 90.9----
2024-06-19 01:12 pm-------29.98- 86.2 90.9----
2024-06-19 01:06 pm-------29.98- 85.5 90.9----
2024-06-19 01:00 pm-------29.98+0.01 85.5 90.9----
2024-06-19 12:54 pm-------29.98- 86.4 90.9----
2024-06-19 12:48 pm-------29.98- 86.2 90.9----
2024-06-19 12:42 pm-------29.99- 86.4 90.9----
2024-06-19 12:36 pm-------29.99- 85.3 90.9----
2024-06-19 12:30 pm-------29.98- 84.9 91.0----
2024-06-19 12:24 pm-------29.98- 85.3 91.0----
2024-06-19 12:18 pm-------29.98- 85.1 91.0----
2024-06-19 12:12 pm-------29.98- 84.4 91.0----
2024-06-19 12:06 pm-------29.98- 83.7 91.0----
2024-06-19 12:00 pm-------29.98+0.02 84.0 91.2----
2024-06-19 11:54 am-------29.98- 84.2 91.4----
2024-06-19 11:48 am-------29.98- 84.9 91.4----
2024-06-19 11:42 am-------29.98- 84.6 91.4----
2024-06-19 11:36 am-------29.98- 84.7 91.4----
2024-06-19 11:30 am-------29.98- 83.8 91.2----
2024-06-19 11:24 am-------29.97- 82.9 91.6----
2024-06-19 11:18 am-------29.97- 83.1 91.6----
2024-06-19 11:12 am-------29.97- 83.5 91.8----
2024-06-19 11:06 am-------29.97- 82.6 91.6----
2024-06-19 11:00 am-------29.97+0.02 82.9 91.4----
2024-06-19 10:54 am-------29.97- 82.8 91.6----
2024-06-19 10:48 am-------29.97- 82.2 91.6----
2024-06-19 10:42 am-------29.96- 82.9 91.6----
2024-06-19 10:36 am-------29.96- 83.1 91.6----
2024-06-19 10:30 am-------29.97- 82.6 91.6----
2024-06-19 10:24 am-------29.97- 82.2 91.6----
2024-06-19 10:18 am-------29.97- 82.6 91.6----
2024-06-19 10:12 am-------29.97- 82.4 91.6----
2024-06-19 10:06 am-------29.97- 82.2 91.8----
2024-06-19 10:00 am-------29.97+0.05 82.4 91.8----
2024-06-19 09:54 am-------29.97- 81.3 91.8----